TimeCST,TemperatureF,Dew PointF,Humidity,Sea Level PressureIn,VisibilityMPH,Wind Direction,Wind SpeedMPH,Gust SpeedMPH,PrecipitationIn,Events,Conditions,WindDirDegrees,DateUTC
12:53 AM,24.8,19.4,80,30.24,10.0,NNW,13.8,-,N/A,,Overcast,330,2013-01-03 06:53:00
1:53 AM,24.1,19.9,84,30.33,6.0,NNW,13.8,-,0.00,Snow,Light Snow,330,2013-01-03 07:53:00
2:07 AM,24.8,19.4,80,30.25,2.5,NNW,15.0,-,0.00,Snow,Light Snow,330,2013-01-03 08:07:00
2:16 AM,24.8,19.4,80,30.25,5.0,NNW,12.7,-,0.00,Snow,Light Snow,330,2013-01-03 08:16:00
2:36 AM,24.8,19.4,80,30.26,10.0,NNW,15.0,23.0,0.00,,Overcast,330,2013-01-03 08:36:00
2:53 AM,24.1,19.9,84,30.36,9.0,NNW,16.1,-,0.00,Snow,Light Snow,330,2013-01-03 08:53:00
3:53 AM,24.1,19.9,84,30.37,8.0,NNW,12.7,-,0.00,Snow,Light Snow,330,2013-01-03 09:53:00
4:53 AM,23.0,19.0,85,30.38,10.0,NNW,15.0,-,0.00,,Overcast,330,2013-01-03 10:53:00
5:26 AM,21.2,17.6,86,30.29,10.0,NNW,13.8,-,N/A,,Overcast,340,2013-01-03 11:26:00
5:53 AM,21.9,17.1,82,30.39,10.0,NNW,9.2,-,N/A,,Overcast,340,2013-01-03 11:53:00
6:53 AM,19.0,15.1,85,30.41,10.0,NW,9.2,-,N/A,,Mostly Cloudy,310,2013-01-03 12:53:00
7:53 AM,16.0,12.0,84,30.44,10.0,NNW,8.1,-,N/A,,Clear,330,2013-01-03 13:53:00
8:53 AM,17.1,12.9,84,30.45,10.0,WNW,8.1,-,N/A,,Clear,300,2013-01-03 14:53:00
9:53 AM,19.9,14.0,78,30.45,10.0,WNW,8.1,-,N/A,,Clear,300,2013-01-03 15:53:00
10:53 AM,21.9,15.1,75,30.45,10.0,NW,6.9,-,N/A,,Clear,310,2013-01-03 16:53:00
11:53 AM,25.0,15.1,66,30.42,10.0,NW,9.2,-,N/A,,Clear,310,2013-01-03 17:53:00
12:53 PM,25.0,12.0,58,30.38,10.0,West,8.1,-,N/A,,Clear,270,2013-01-03 18:53:00
1:53 PM,26.1,15.1,63,30.36,10.0,WSW,9.2,-,N/A,,Clear,250,2013-01-03 19:53:00
2:53 PM,28.0,16.0,61,30.34,10.0,West,10.4,-,N/A,,Clear,260,2013-01-03 20:53:00
3:53 PM,27.0,16.0,63,30.34,10.0,SW,13.8,-,N/A,,Clear,230,2013-01-03 21:53:00
4:53 PM,25.0,16.0,69,30.34,10.0,West,8.1,-,N/A,,Clear,260,2013-01-03 22:53:00
5:53 PM,19.9,12.9,74,30.35,10.0,WSW,3.5,-,N/A,,Clear,250,2013-01-03 23:53:00
6:53 PM,19.0,12.0,74,30.37,10.0,Calm,Calm,-,N/A,,Clear,0,2013-01-04 00:53:00
7:53 PM,10.0,6.1,84,30.38,10.0,Calm,Calm,-,N/A,,Clear,0,2013-01-04 01:53:00
8:53 PM,6.1,3.9,91,30.37,10.0,Calm,Calm,-,N/A,,Clear,0,2013-01-04 02:53:00
9:53 PM,7.0,5.0,92,30.35,10.0,South,3.5,-,N/A,,Clear,190,2013-01-04 03:53:00
10:53 PM,10.0,7.0,87,30.35,10.0,Calm,Calm,-,N/A,,Clear,0,2013-01-04 04:53:00
11:53 PM,9.0,6.1,88,30.33,10.0,Calm,Calm,-,N/A,,Clear,0,2013-01-04 05:53:00